Location: Kerb�bon
(47.7970°N, 3.3487°W)
Time: 12:57:33
(UTC+00:00)

Meteor 1-27 Rocket - Pass Details

Date: 12 May 2021
Orbit: 829 x 910 km, 81.3° (Epoch: 18 June)

Event Time Altitude Azimuth Distance (km) Brightness Sun altitude
Exits shadow 21:52:06 24° 169° (S) 1,749 4.8 -17.0°
Maximum altitude 21:55:36 63° 96° (E) 1,002 3.9 -17.3°
Drops below altitude 10° 22:01:27 10° 17° (NNE) 2,602 6.8 -17.9°
Sets 22:03:58 0° 15° (NNE) 3,552 7.6 -18.1°
